Starlink 33720

operational
NORAD ID: 63468 Int'l Des: 2025-070 Owner: SPXS Country: US Constellation: starlink
LEOCIRCULAR

About Starlink 33720

Description loading...

Live Position

Loading 3D Globe...

Upcoming Passes

Altitude History

Altitude vs Time

uPlot chart will show altitude changes over time

Two-Line Element Set

1 63468U 25070J 25352.33520783 .00029121 00000-0 10627-2 0 9992
2 63468 43.0027 359.3051 0001277 268.2643 91.8062 15.27608498 40537
Epoch: Dec 18, 2025 • Age: 22 hours

Current Status

Altitude 495.2 km
Velocity 7.62 km/s
Sub-Earth Point -43.02°S, 97.18°E
Launch Date Apr 6, 2025
Age 0.7 years
Type internet

Technical Details

Classification Payload
Mass 575.00 kg
Dry Mass 530.00 kg
Total Mass 575.00 kg
Length 0.30 m
Diameter 4.10 m
Span 29.00 m
Shape Box + pan
Manufacturer SPXS
Bus Type Starlink V2MO
Phase Status In Orbit
Owner/State SPXS/US

Large Constellations

Loading constellations...